Wind_Speed
2 2 2 3 3 4 4 4 4 4 4 4 4 5 4 4 4 5 5 5 5 5 5 5 5 5 5 6 6 6 7 7 6 7 7 7 7 6 6 7 6 6 6
3 3 4 4 5 5 5 5 6 6 6 5 5 5 6 5 5 5 5 6 7 7 6 6 6 6 6 6 7 7 8 8 7 7 7 8 8 7 7 7 7 8 7
5 5 5 6 6 6 6 6 6 6 6 6 7 6 6 6 6 6 6 6 6 6 7 8 7 7 7 7 8 8 8 7 7 8 8 9 8 8 8 8 8 8 9
6 6 7 7 7 7 7 7 7 7 7 7 8 8 8 8 8 8 8 7 7 7 8 9 9 8 8 8 8 8 9 8 8 8 8 9 9 9 9 9 9 10 10
7 8 8 8 8 8 8 7 7 7 8 9 9 9 9 9 9 9 9 9 8 8 9 9 9 9 8 8 8 8 9 8 8 8 8 9 10 10 10 10 10 11 11
9 8 8 9 9 9 9 8 8 8 8 9 9 10 10 9 9 9 10 9 9 10 10 10 10 10 9 8 8 8 9 9 9 9 9 9 10 10 10 11 11 12 12
10 10 9 9 9 9 9 9 9 9 9 10 10 10 10 10 10 10 10 10 11 11 10 10 10 10 9 8 8 8 8 8 9 9 9 10 10 10 10 11 11 12 12
11 10 9 10 10 10 10 10 10 10 10 10 11 11 11 11 11 11 11 11 11 11 10 11 11 10 10 8 8 8 7 8 8 9 9 9 9 10 10 11 11 12 12
10 10 9 10 10 10 10 10 10 11 11 11 11 11 11 11 11 12 12 12 12 11 11 11 11 11 10 9 9 9 9 8 8 8 8 8 9 9 10 10 11 11 11
10 10 10 10 10 10 10 10 11 11 11 11 11 11 11 11 12 11 12 11 11 11 11 11 10 10 10 10 10 9 9 8 8 9 8 8 8 8 9 9 10 11 11
10 10 9 9 10 10 10 10 10 11 11 11 11 11 11 11 11 11 11 10 10 10 10 10 10 9 9 10 10 8 8 8 8 8 9 8 8 8 9 9 9 10 10
10 10 9 9 9 10 10 10 10 10 10 10 10 10 10 11 11 11 10 9 10 9 9 9 9 9 9 9 8 8 7 7 7 8 7 7 8 8 9 9 9 9 10
10 10 10 9 10 10 10 10 10 10 10 10 10 10 10 10 10 10 9 10 10 9 9 9 9 9 9 8 8 7 8 7 7 7 6 7 7 8 8 8 8 9 10
10 10 10 10 10 10 10 11 10 9 9 9 9 9 9 10 10 9 9 9 9 9 9 9 9 9 9 8 8 7 7 6 6 6 6 7 7 8 8 8 8 9 9
11 11 10 10 11 11 11 10 10 9 10 9 9 9 9 9 9 8 8 9 9 9 8 8 8 8 8 8 7 7 7 6 6 6 7 7 7 7 8 8 8 9 9
11 11 10 10 11 11 11 10 9 9 9 9 9 9 9 9 9 8 8 8 8 9 8 8 8 8 7 7 7 7 6 5 5 6 6 6 7 7 8 8 8 8 8
11 10 10 11 11 11 11 10 10 9 9 9 9 9 8 8 8 8 8 7 7 8 8 7 7 7 6 6 6 6 6 5 5 6 6 6 6 7 8 8 8 8 8
11 10 10 11 11 10 10 9 9 9 10 9 9 8 8 8 8 7 7 7 6 6 7 7 6 6 5 5 5 5 5 5 5 5 6 6 6 7 7 7 7 8 8
11 10 10 10 10 10 10 9 9 9 9 9 9 8 8 8 7 7 7 6 5 5 6 6 5 5 4 4 4 5 5 5 5 5 5 5 6 6 6 6 7 7 8
11 11 10 11 10 10 10 10 9 9 9 9 9 8 7 7 7 7 6 6 5 5 5 5 5 4 4 4 4 4 5 5 5 5 4 4 5 5 6 6 6 7 7
12 12 11 11 11 11 10 9 9 9 9 9 9 8 8 7 6 6 6 6 6 5 5 5 5 4 4 4 4 4 4 4 4 4 4 4 5 5 6 6 6 6 7
12 12 13 12 12 11 10 9 9 9 10 9 8 8 8 7 7 6 7 6 6 6 5 5 5 4 4 4 4 4 3 3 4 4 4 4 4 4 5 6 6 6 7
12 12 13 13 11 11 10 10 10 10 9 9 8 7 6 6 6 6 6 6 5 5 6 5 5 4 4 3 3 3 3 3 3 3 3 3 4 5 5 6 6 7 7
12 12 12 11 10 10 10 10 10 9 9 8 8 8 6 5 6 6 5 6 6 6 6 6 5 4 4 3 3 4 4 4 4 3 3 4 4 5 5 6 6 7 7
12 12 12 11 11 10 10 10 10 9 9 8 8 7 7 6 6 6 6 6 6 6 6 6 6 5 4 4 4 4 3 3 3 3 4 4 5 5 5 6 7 7 8
12 12 12 11 11 11 10 9 9 9 8 8 8 7 7 7 6 6 6 6 6 6 7 7 6 6 6 5 5 5 4 4 4 4 4 4 5 5 5 6 7 8 8
Wind_Direction
308 308 311 289 287 280 270 264 269 264 261 263 260 258 258 263 263 261 258 244 239 235 230 234 236 249 253 258 263 267 260 254 252 254 258 264 267 269 272 275 273 274 279
299 297 297 295 291 287 277 267 265 262 262 264 264 263 260 261 263 268 263 258 250 246 247 253 252 260 259 264 266 269 265 256 254 254 257 263 269 272 277 277 274 273 274
295 294 293 294 294 291 286 282 273 269 267 268 271 272 270 269 265 267 271 271 259 258 261 260 258 260 264 267 267 266 264 259 256 261 263 264 267 271 274 276 276 276 274
294 291 291 294 296 293 288 285 281 279 276 274 274 275 276 274 269 271 275 274 272 269 266 263 261 261 263 263 266 268 268 264 263 265 266 266 267 268 270 273 274 274 276
292 291 291 292 294 294 292 288 285 282 277 275 275 275 277 277 275 274 276 272 273 270 269 268 265 261 263 266 270 270 268 263 262 265 265 267 268 267 268 272 273 274 275
290 290 289 288 291 293 291 287 284 281 282 277 275 274 276 279 276 276 275 273 274 273 272 271 267 264 264 267 269 271 269 265 263 263 265 268 269 270 270 273 275 275 276
292 288 286 286 289 293 293 288 285 283 283 281 278 276 278 281 279 274 275 276 278 277 275 272 270 265 261 267 267 266 266 264 261 262 266 269 270 272 273 275 275 275 275
292 287 286 288 290 291 291 290 288 284 283 282 279 278 279 280 279 275 276 277 277 277 278 276 273 268 266 269 265 260 260 259 261 263 266 270 273 274 274 274 273 275 276
294 287 287 291 293 293 292 290 288 282 279 280 280 282 283 283 280 277 275 275 273 272 275 276 271 268 269 270 265 262 264 265 261 264 268 272 275 277 276 275 276 277 278
297 289 290 295 294 293 292 291 289 285 281 281 281 280 284 287 283 279 277 275 271 271 273 272 269 268 264 268 268 265 266 266 269 268 269 272 279 282 281 280 280 280 280
301 295 295 295 295 294 291 291 290 288 287 285 285 281 284 286 284 282 279 277 272 270 269 266 265 268 264 263 261 263 266 269 275 277 271 275 282 285 284 282 282 282 282
303 299 298 299 297 296 294 293 292 290 289 289 287 286 286 286 284 282 278 274 270 267 262 258 262 267 264 263 261 263 264 270 279 279 275 275 280 286 289 284 285 284 284
303 302 301 301 301 299 298 296 293 288 288 289 289 288 287 289 285 280 275 272 268 263 258 256 258 262 260 260 261 263 265 268 279 278 276 279 287 293 295 289 287 287 286
303 303 302 301 303 301 299 297 293 287 288 290 290 287 287 288 285 280 272 270 269 261 258 259 260 263 258 261 259 263 265 271 280 281 281 288 292 295 299 298 296 294 292
301 300 299 300 301 300 298 296 293 291 292 291 289 284 283 286 284 281 276 271 268 263 259 258 258 261 258 257 258 258 263 271 280 282 283 286 293 298 297 298 295 294 296
300 297 297 297 299 299 296 293 292 294 297 294 287 282 282 282 280 277 276 276 268 264 261 258 257 261 260 258 259 260 264 269 279 285 284 287 294 298 298 296 298 298 296
302 298 298 296 298 297 294 292 291 293 294 294 288 284 284 280 277 272 274 277 270 259 256 253 254 256 256 258 257 255 258 265 277 287 291 293 295 297 297 298 302 301 296
301 298 300 299 298 297 296 294 293 295 295 293 289 287 282 279 273 273 271 273 270 258 250 248 246 245 249 254 253 252 256 267 278 285 289 292 294 299 302 303 304 306 303
305 304 302 301 299 298 296 292 292 294 296 294 290 287 284 277 270 268 268 269 266 255 247 244 239 237 242 252 256 258 264 266 272 282 289 296 299 304 308 310 312 312 312
306 307 306 303 301 300 298 293 289 291 294 295 292 287 284 275 267 267 262 260 257 252 245 236 228 226 233 248 258 266 269 270 269 277 285 297 308 315 317 317 321 320 319
303 304 305 302 301 300 298 294 290 290 291 292 292 286 279 273 264 261 257 253 251 249 237 230 221 222 237 249 253 260 261 267 271 274 281 294 310 318 321 322 327 326 325
301 305 303 300 296 296 294 292 290 288 287 286 287 283 277 272 265 262 258 253 248 238 232 221 222 230 245 245 245 248 260 264 267 263 277 291 310 323 325 326 332 331 334
300 301 306 301 295 293 292 292 291 289 285 283 280 279 274 261 255 256 254 249 238 232 228 220 223 231 233 239 241 245 251 256 266 270 280 302 316 323 324 327 331 335 337
299 300 302 300 297 293 289 288 288 290 287 280 275 273 263 254 247 249 246 241 234 226 221 219 223 226 236 243 246 249 251 252 259 266 287 299 312 319 322 325 327 334 337
298 299 300 297 296 295 290 286 282 284 284 276 272 266 256 254 248 246 245 239 235 227 222 221 221 228 238 243 249 258 255 255 265 282 295 301 307 310 317 323 325 331 336
298 297 297 296 294 291 287 286 282 282 282 273 267 264 256 249 247 247 245 239 239 233 228 225 226 233 239 243 250 256 254 261 274 286 295 303 307 311 320 322 323 328 334
Height
5878 5878 5878 5878 5878 5878 5878 5878 5878 5878 5877 5877 5877 5877 5877 5878 5878 5878 5878 5878 5879 5879 5879 5879 5879 5880 5880 5880 5881 5881 5881 5881 5882 5882 5882 5883 5883 5883 5884 5884 5884 5885 5885
5878 5878 5878 5878 5877 5877 5877 5877 5877 5877 5877 5877 5877 5877 5877 5877 5877 5877 5877 5877 5878 5878 5878 5878 5878 5879 5879 5879 5879 5879 5880 5880 5880 5881 5881 5881 5882 5882 5883 5883 5883 5883 5884
5877 5877 5877 5877 5877 5876 5876 5876 5876 5876 5875 5876 5876 5876 5876 5876 5876 5876 5876 5876 5877 5877 5877 5877 5877 5877 5878 5878 5878 5878 5878 5879 5879 5879 5880 5880 5880 5881 5881 5881 5882 5882 5882
5877 5876 5876 5876 5875 5875 5875 5875 5874 5874 5874 5874 5874 5874 5875 5875 5875 5875 5875 5875 5875 5876 5876 5876 5876 5876 5876 5876 5876 5876 5876 5877 5877 5878 5878 5878 5878 5879 5879 5880 5880 5880 5881
5876 5875 5875 5875 5874 5874 5873 5873 5873 5873 5873 5873 5873 5873 5873 5873 5873 5873 5873 5874 5874 5874 5874 5874 5874 5874 5874 5874 5874 5874 5875 5875 5876 5876 5876 5876 5877 5877 5877 5878 5878 5879 5879
5875 5874 5874 5873 5873 5872 5872 5872 5871 5871 5871 5871 5871 5871 5871 5871 5872 5872 5872 5872 5872 5872 5872 5872 5873 5873 5873 5872 5872 5873 5873 5873 5874 5874 5874 5874 5875 5875 5876 5876 5876 5876 5877
5873 5873 5872 5872 5872 5871 5871 5870 5870 5870 5869 5869 5869 5869 5869 5869 5870 5870 5870 5870 5870 5870 5870 5870 5871 5871 5871 5870 5871 5871 5871 5871 5872 5872 5872 5873 5873 5873 5873 5874 5874 5874 5875
5871 5871 5870 5870 5870 5869 5869 5869 5868 5868 5868 5867 5867 5867 5867 5867 5868 5868 5868 5868 5868 5868 5868 5868 5869 5869 5869 5869 5869 5869 5869 5870 5870 5870 5871 5871 5871 5871 5871 5871 5872 5872 5872
5869 5869 5869 5868 5868 5867 5867 5867 5866 5866 5866 5865 5865 5865 5865 5865 5865 5865 5865 5865 5866 5866 5866 5866 5866 5867 5867 5867 5867 5868 5868 5868 5868 5869 5869 5869 5869 5869 5869 5869 5870 5870 5870
5868 5867 5867 5867 5866 5866 5865 5865 5864 5864 5863 5863 5863 5863 5863 5863 5863 5863 5863 5863 5863 5864 5864 5864 5864 5865 5865 5865 5866 5866 5866 5867 5867 5867 5867 5867 5867 5867 5867 5867 5867 5867 5868
5866 5865 5865 5865 5864 5864 5863 5862 5862 5862 5861 5861 5861 5861 5861 5861 5860 5860 5860 5860 5861 5861 5862 5862 5863 5863 5863 5864 5864 5864 5865 5865 5865 5865 5865 5866 5865 5865 5865 5865 5865 5865 5865
5864 5864 5863 5863 5862 5862 5861 5860 5860 5860 5859 5858 5858 5858 5859 5859 5858 5858 5858 5859 5859 5859 5860 5860 5861 5861 5862 5862 5863 5863 5863 5863 5864 5864 5864 5864 5864 5864 5864 5863 5863 5863 5863
5862 5862 5861 5861 5860 5860 5859 5859 5858 5858 5857 5857 5856 5856 5856 5856 5856 5856 5857 5857 5857 5857 5858 5859 5859 5859 5860 5861 5861 5861 5862 5862 5862 5862 5862 5862 5862 5862 5862 5862 5862 5861 5861
5861 5860 5859 5859 5858 5858 5857 5857 5856 5856 5855 5855 5854 5855 5855 5855 5855 5855 5855 5855 5855 5856 5856 5857 5858 5858 5858 5859 5860 5860 5860 5861 5861 5861 5861 5861 5861 5861 5860 5860 5860 5860 5859
5859 5858 5858 5857 5857 5856 5855 5855 5854 5854 5853 5853 5853 5853 5853 5853 5853 5853 5853 5853 5853 5854 5854 5855 5856 5857 5857 5858 5858 5859 5859 5859 5859 5860 5860 5860 5860 5859 5859 5859 5858 5858 5858
5857 5856 5855 5855 5855 5854 5853 5853 5852 5852 5852 5851 5851 5851 5851 5851 5851 5851 5852 5852 5852 5852 5853 5853 5854 5855 5856 5856 5857 5857 5858 5858 5858 5858 5859 5859 5858 5858 5858 5858 5857 5857 5856
5855 5854 5854 5853 5853 5852 5851 5851 5851 5850 5850 5849 5849 5849 5849 5849 5849 5850 5850 5850 5850 5850 5851 5852 5853 5854 5854 5855 5855 5856 5856 5857 5857 5857 5857 5857 5857 5857 5856 5856 5856 5855 5854
5854 5853 5852 5852 5851 5850 5849 5849 5849 5849 5848 5848 5847 5847 5847 5847 5848 5848 5849 5849 5849 5849 5850 5851 5852 5852 5853 5854 5854 5855 5855 5856 5856 5856 5856 5856 5856 5856 5855 5855 5855 5854 5853
5852 5851 5850 5850 5849 5848 5848 5847 5847 5847 5846 5846 5846 5846 5846 5846 5846 5847 5847 5847 5847 5848 5849 5849 5850 5851 5852 5852 5853 5854 5854 5855 5855 5855 5855 5855 5855 5855 5854 5854 5854 5853 5852
5851 5849 5849 5848 5847 5847 5846 5846 5845 5845 5845 5844 5844 5844 5844 5844 5845 5845 5846 5846 5846 5847 5848 5848 5849 5850 5851 5852 5852 5853 5853 5854 5854 5854 5855 5855 5854 5854 5854 5853 5853 5852 5851
5849 5848 5847 5846 5845 5845 5844 5844 5844 5843 5843 5843 5843 5842 5842 5843 5843 5844 5845 5845 5845 5846 5847 5847 5848 5849 5850 5851 5852 5852 5852 5853 5853 5853 5854 5854 5854 5853 5853 5853 5852 5851 5850
5847 5846 5845 5844 5844 5843 5843 5842 5842 5842 5841 5841 5841 5841 5841 5841 5842 5843 5844 5844 5844 5845 5846 5847 5848 5848 5849 5850 5851 5851 5852 5853 5852 5853 5853 5853 5853 5853 5852 5852 5851 5850 5849
5845 5844 5843 5842 5841 5841 5841 5840 5840 5840 5840 5840 5840 5840 5840 5840 5841 5842 5842 5843 5844 5844 5845 5846 5847 5848 5849 5849 5850 5851 5851 5852 5852 5853 5852 5852 5852 5852 5852 5851 5850 5850 5849
5843 5842 5841 5840 5839 5839 5838 5838 5838 5838 5838 5838 5838 5838 5838 5839 5840 5840 5841 5842 5843 5844 5845 5846 5846 5847 5848 5849 5849 5850 5851 5851 5852 5852 5852 5852 5851 5851 5851 5850 5850 5849 5848
5840 5839 5839 5838 5837 5837 5836 5836 5836 5836 5836 5836 5836 5837 5837 5838 5838 5839 5840 5841 5842 5843 5844 5845 5846 5847 5847 5848 5849 5849 5850 5850 5851 5851 5851 5851 5851 5850 5850 5849 5849 5848 5847
5837 5837 5836 5836 5835 5835 5834 5834 5834 5834 5834 5834 5835 5835 5836 5837 5837 5838 5839 5840 5841 5842 5843 5844 5845 5846 5847 5847 5848 5849 5849 5849 5850 5850 5850 5850 5850 5849 5849 5848 5848 5847 5847